Terminal Aerodrome Forecast
Issued by NWS Anchorage, AK

Home | Current Version | Previous Version | Text Only | Print | Product List | Glossary On
Versions: 1 2 3 4 5 6 7 8 9 10 11 12 13 14 15 16 17 18 19 20
000
FTAK31 PANC 240220 AAB
TAFANC
TAF AMD
PANC 240220Z 2402/2506 16015G30KT P6SM BKN060
     FM241000 16018G28KT P6SM FEW060 BKN090 WS020/13050KT
     FM242200 16026G40KT P6SM VCSH FEW050 BKN070 WS020/13058KT
     FM250200 19010G20KT P6SM -SHRA SCT030 BKN050=

USA.gov is the U.S. government's official web portal to all federal, state and local government web resources and services.